Volver al catálogo

STARLINK-36947

ActivoComunicacionesSSO
NORAD 68033·PAYLOAD·🇺🇸 United States

Lanzado Mar 1, 2026 desde Vandenberg Space Force Base

Loading…

Próximos Pases (próximas 24 horas)

TLE

ActualizadoSource: CelesTrak SupGP

Época: Sep 15, 2026, 03:37 UTC

1 68033C 26040U   26258.15118056  .00051766  00000+0  16073-2 0  2583
2 68033  97.2852 205.5816 0002066  97.9215 101.5047 15.33404898    13

Sigue STARLINK-36947 en tiempo real con AllMySat

Download on the App Store